When you browse on this site, cookies collect data to enhance your experience and personalize the content and advertising you see.
Visit our Privacy Policy to learn more. By continuing to use the site, you agree to this use of cookies and data.
  • In Schweiz
  • Länderverzeichnis
  • Für 7 Tage
  • Wassertemperatur
  • Satellitenkarten
  • Wetterkarte
  • Widgets
  • user-avatar
    Anmelden

    Stündliche Wetter Oran

    Heute, 23 März, Samstag

    Zeit Temperatur Niederschläge Wind Luftdruck Luftfeuchtigkeit
    00:00 +10°C° 0 mm 0 m/S 757 mmHg 90%
    01:00 +9°C° 0 mm 0 m/S 757 mmHg 91%
    02:00 +9°C° 0 mm 0 m/S 757 mmHg 91%
    03:00 +9°C° 0 mm 0 m/S 757 mmHg 91%
    04:00 +10°C° 0 mm 1 m/S 757 mmHg 91%
    05:00 +10°C° 0 mm 1 m/S 757 mmHg 91%
    06:00 +8°C° 0 mm 2 m/S 757 mmHg 92%
    07:00 +10°C° 0 mm 2 m/S 757 mmHg 84%
    08:00 +12°C° 0 mm 3 m/S 757 mmHg 77%
    09:00 +14°C° 0 mm 3 m/S 757 mmHg 70%
    10:00 +16°C° 0 mm 3 m/S 757 mmHg 63%
    11:00 +18°C° 0 mm 4 m/S 757 mmHg 56%
    12:00 +19°C° 0 mm 4 m/S 757 mmHg 50%
    13:00 +19°C° 0 mm 5 m/S 756 mmHg 50%
    14:00 +19°C° 0 mm 6 m/S 755 mmHg 51%
    15:00 +18°C° 0 mm 7 m/S 755 mmHg 51%
    16:00 +17°C° 0 mm 7 m/S 755 mmHg 59%
    17:00 +16°C° 0 mm 7 m/S 754 mmHg 67%
    18:00 +15°C° 0 mm 7 m/S 754 mmHg 74%
    19:00 +14°C° 0 mm 6 m/S 755 mmHg 78%
    20:00 +14°C° 0 mm 6 m/S 755 mmHg 83%
    21:00 +13°C° 0 mm 5 m/S 755 mmHg 87%
    22:00 +13°C° 0 mm 5 m/S 755 mmHg 87%
    23:00 +13°C° 0 mm 4 m/S 755 mmHg 87%

    Morgen, 24 März, Sonntag

    Zeit Temperatur Niederschläge Wind Luftdruck Luftfeuchtigkeit
    00:00 +12°C° 0 mm 4 m/S 755 mmHg 87%
    01:00 +12°C° 0 mm 4 m/S 754 mmHg 85%
    02:00 +12°C° 0 mm 3 m/S 754 mmHg 83%
    03:00 +12°C° 0 mm 3 m/S 754 mmHg 81%
    04:00 +12°C° 0 mm 4 m/S 754 mmHg 75%
    05:00 +13°C° 0 mm 4 m/S 754 mmHg 69%
    06:00 +13°C° 0 mm 4 m/S 753 mmHg 63%
    07:00 +15°C° 0 mm 4 m/S 754 mmHg 58%
    08:00 +17°C° 0 mm 4 m/S 754 mmHg 52%
    09:00 +18°C° 0 mm 4 m/S 755 mmHg 47%
    10:00 +19°C° 0 mm 4 m/S 755 mmHg 45%
    11:00 +21°C° 0 mm 4 m/S 755 mmHg 42%
    12:00 +22°C° 0 mm 4 m/S 755 mmHg 40%
    13:00 +20°C° 0.3 mm 4 m/S 754 mmHg 46%
    14:00 +19°C° 0.3 mm 4 m/S 754 mmHg 53%
    15:00 +18°C° 0.3 mm 4 m/S 753 mmHg 60%
    16:00 +17°C° 0.3 mm 5 m/S 753 mmHg 60%
    17:00 +16°C° 0.3 mm 6 m/S 753 mmHg 61%
    18:00 +16°C° 0.3 mm 7 m/S 753 mmHg 62%
    19:00 +16°C° 0.5 mm 7 m/S 754 mmHg 63%
    20:00 +15°C° 0.5 mm 7 m/S 754 mmHg 64%
    21:00 +15°C° 0.5 mm 7 m/S 754 mmHg 65%
    22:00 +14°C° 0.1 mm 6 m/S 754 mmHg 66%
    23:00 +14°C° 0.1 mm 6 m/S 754 mmHg 67%

    übermorgen, 25 März, Montag

    Zeit Temperatur Niederschläge Wind Luftdruck Luftfeuchtigkeit
    00:00 +14°C° 0.1 mm 5 m/S 753 mmHg 68%
    01:00 +13°C° 0 mm 4 m/S 753 mmHg 68%
    02:00 +13°C° 0 mm 4 m/S 753 mmHg 67%
    03:00 +13°C° 0 mm 3 m/S 752 mmHg 66%
    04:00 +14°C° 0 mm 3 m/S 752 mmHg 62%
    05:00 +15°C° 0 mm 2 m/S 752 mmHg 58%
    06:00 +15°C° 0 mm 2 m/S 752 mmHg 55%
    07:00 +17°C° 0 mm 2 m/S 752 mmHg 48%
    08:00 +19°C° 0 mm 3 m/S 753 mmHg 42%
    09:00 +21°C° 0 mm 3 m/S 753 mmHg 36%
    10:00 +24°C° 0 mm 3 m/S 753 mmHg 33%
    11:00 +25°C° 0 mm 2 m/S 752 mmHg 30%
    12:00 +27°C° 0 mm 2 m/S 752 mmHg 28%
    13:00 +26°C° 0 mm 3 m/S 751 mmHg 30%
    14:00 +26°C° 0 mm 5 m/S 751 mmHg 33%
    15:00 +24°C° 0 mm 7 m/S 750 mmHg 35%
    16:00 +23°C° 0 mm 6 m/S 750 mmHg 41%
    17:00 +21°C° 0 mm 6 m/S 750 mmHg 47%
    18:00 +20°C° 0 mm 5 m/S 750 mmHg 52%
    19:00 +19°C° 0 mm 5 m/S 750 mmHg 57%
    20:00 +18°C° 0 mm 4 m/S 750 mmHg 61%
    21:00 +17°C° 0 mm 3 m/S 751 mmHg 65%
    22:00 +17°C° 0 mm 3 m/S 750 mmHg 64%
    23:00 +17°C° 0 mm 3 m/S 750 mmHg 63%

    26 März, Dienstag

    Zeit Temperatur Niederschläge Wind Luftdruck Luftfeuchtigkeit
    00:00 +17°C° 0 mm 3 m/S 750 mmHg 61%
    01:00 +17°C° 0 mm 3 m/S 749 mmHg 59%
    02:00 +16°C° 0 mm 3 m/S 749 mmHg 57%
    03:00 +16°C° 0 mm 3 m/S 749 mmHg 54%
    04:00 +17°C° 0 mm 3 m/S 749 mmHg 52%
    05:00 +17°C° 0 mm 3 m/S 749 mmHg 49%
    06:00 +18°C° 0 mm 4 m/S 749 mmHg 46%
    07:00 +18°C° 0.1 mm 4 m/S 749 mmHg 48%
    08:00 +19°C° 0.1 mm 4 m/S 750 mmHg 49%
    09:00 +19°C° 0.1 mm 4 m/S 750 mmHg 51%
    10:00 +21°C° 0 mm 5 m/S 750 mmHg 46%
    11:00 +22°C° 0 mm 5 m/S 750 mmHg 42%
    12:00 +23°C° 0 mm 6 m/S 750 mmHg 37%
    13:00 +24°C° 0.1 mm 8 m/S 749 mmHg 39%
    14:00 +24°C° 0.1 mm 10 m/S 749 mmHg 40%
    15:00 +24°C° 0.1 mm 12 m/S 748 mmHg 42%
    16:00 +22°C° 0.1 mm 12 m/S 748 mmHg 50%
    17:00 +19°C° 0.1 mm 12 m/S 749 mmHg 59%
    18:00 +17°C° 0.1 mm 12 m/S 749 mmHg 67%
    19:00 +15°C° 0.1 mm 12 m/S 749 mmHg 69%
    20:00 +14°C° 0.1 mm 11 m/S 750 mmHg 71%
    21:00 +14°C° 0.1 mm 11 m/S 750 mmHg 73%
    22:00 +13°C° 0 mm 11 m/S 750 mmHg 72%
    23:00 +13°C° 0 mm 11 m/S 751 mmHg 70%

    27 März, Mittwoch

    Zeit Temperatur Niederschläge Wind Luftdruck Luftfeuchtigkeit
    00:00 +13°C° 0 mm 10 m/S 751 mmHg 68%
    01:00 +13°C° 0 mm 10 m/S 750 mmHg 67%
    02:00 +13°C° 0 mm 10 m/S 750 mmHg 67%
    03:00 +13°C° 0 mm 9 m/S 750 mmHg 66%
    04:00 +13°C° 0.3 mm 9 m/S 750 mmHg 69%
    05:00 +12°C° 0.3 mm 9 m/S 750 mmHg 71%
    06:00 +12°C° 0.3 mm 8 m/S 751 mmHg 74%
    07:00 +12°C° 1.3 mm 9 m/S 751 mmHg 75%
    08:00 +12°C° 1.3 mm 9 m/S 751 mmHg 77%
    09:00 +12°C° 1.3 mm 9 m/S 752 mmHg 78%
    10:00 +12°C° 0.7 mm 10 m/S 752 mmHg 76%
    11:00 +13°C° 0.7 mm 10 m/S 752 mmHg 73%
    12:00 +14°C° 0.7 mm 11 m/S 752 mmHg 71%
    13:00 +14°C° 0.1 mm 11 m/S 752 mmHg 69%
    14:00 +14°C° 0.1 mm 11 m/S 751 mmHg 67%
    15:00 +14°C° 0.1 mm 12 m/S 751 mmHg 65%
    16:00 +14°C° 0.2 mm 11 m/S 752 mmHg 68%
    17:00 +13°C° 0.2 mm 10 m/S 752 mmHg 71%
    18:00 +13°C° 0.2 mm 9 m/S 752 mmHg 74%
    19:00 +12°C° 0.1 mm 8 m/S 753 mmHg 76%
    20:00 +12°C° 0.1 mm 7 m/S 753 mmHg 78%
    21:00 +12°C° 0.1 mm 7 m/S 754 mmHg 80%
    22:00 +13°C° 0 mm 6 m/S 754 mmHg 81%
    23:00 +11°C° 0 mm 6 m/S 754 mmHg 83%

    28 März, Donnerstag

    Zeit Temperatur Niederschläge Wind Luftdruck Luftfeuchtigkeit
    00:00 +12°C° 0 mm 5 m/S 754 mmHg 85%
    01:00 +12°C° 0 mm 5 m/S 754 mmHg 86%
    02:00 +12°C° 0 mm 5 m/S 753 mmHg 86%
    03:00 +12°C° 0 mm 5 m/S 753 mmHg 87%
    04:00 +12°C° 0 mm 5 m/S 754 mmHg 86%
    05:00 +12°C° 0 mm 5 m/S 754 mmHg 85%
    06:00 +13°C° 0 mm 5 m/S 754 mmHg 84%
    07:00 +13°C° 0 mm 5 m/S 754 mmHg 80%
    08:00 +14°C° 0 mm 5 m/S 755 mmHg 76%
    09:00 +15°C° 0 mm 5 m/S 755 mmHg 72%
    10:00 +16°C° 0 mm 5 m/S 755 mmHg 69%
    11:00 +16°C° 0 mm 6 m/S 755 mmHg 66%
    12:00 +17°C° 0 mm 6 m/S 755 mmHg 63%
    13:00 +17°C° 0 mm 6 m/S 755 mmHg 64%
    14:00 +17°C° 0 mm 7 m/S 755 mmHg 65%
    15:00 +17°C° 0 mm 8 m/S 754 mmHg 65%
    16:00 +16°C° 0 mm 7 m/S 755 mmHg 69%
    17:00 +16°C° 0 mm 7 m/S 755 mmHg 72%
    18:00 +15°C° 0 mm 6 m/S 755 mmHg 76%
    19:00 +14°C° 0 mm 6 m/S 755 mmHg 79%
    20:00 +13°C° 0 mm 6 m/S 756 mmHg 83%
    21:00 +13°C° 0 mm 5 m/S 756 mmHg 86%
    22:00 +12°C° 0 mm 5 m/S 756 mmHg 87%
    23:00 +12°C° 0 mm 5 m/S 756 mmHg 87%
    Mehr zeigen